[[{"header":{"parameterUnit":"m.s-1","parameterCategory":1,"la1":30.2991,"la2":30.254,"lo1":-89.0895,"lo2":-89.0444,"dy":0.0017,"dx":0.0017,"nx":28,"ny":28,"refTime":"2023-05-01T21:00:00:Z","depth":0,"parameterNumber":2,"parameterNumberName":"U-component_of_WINDS"},"data":[0,0,0,0,0,0,0,0,0,0,0,0,0,0,0,0,0,0,0,0,0,0,0,0,0,0,0,0,0,0,0,0,0,0,0,0,0,0,0,0,0,0,0,0,0,0,0,0,0,0,0,0,0,0,0,0,0,0,0.4346,0.4346,0,0.4319,0.4318,0.4318,0.4337,0.4338,0.4339,0.434,0.4309,0.4307,0.4306,0,0,0,0,0,0,0,0,0,0,0,0,0,0.4413,0.4412,0.4346,0.4346,0.4345,0.4319,0.4318,0.4318,0.4337,0.4338,0.4339,0.434,0.4309,0.4307,0.4305,0,0,0,0,0,0,0,0,0,0,0,0,0,0.4385,0.4411,0.4346,0.4352,0.4352,0.4319,0.4318,0.4318,0.4337,0.4338,0.434,0.4341,0.431,0.4308,0.4305,0.4264,0,0,0.4298,0.4297,0,0,0,0,0,0,0,0,0.4386,0.4382,0.4351,0.4351,0.4352,0.4333,0.4331,0.4299,0.4337,0.4343,0.434,0.4342,0.4316,0.4313,0.4305,0.4262,0.4261,0.4297,0.4296,0.4295,0.4294,0,0,0,0,0,0,0,0.4388,0.4383,0.4335,0.4351,0.4351,0.4355,0.4353,0.4325,0.4322,0.4342,0.4344,0.434,0.4316,0.4307,0.4304,0.426,0.4297,0.4295,0.4294,0.4293,0.4183,0.4182,0,0,0,0,0,0,0.439,0.4385,0.4336,0.4334,0.4373,0.4353,0.435,0.4337,0.4322,0.4321,0.4339,0.4341,0.431,0.4307,0.4303,0.4253,0.4295,0.4293,0.4291,0.4184,0.4183,0.4181,0,0,0,0,0,0,0.4391,0.4385,0.4337,0.436,0.4354,0.435,0.4336,0.4336,0.4327,0.432,0.4319,0.4331,0.4311,0.4306,0.4274,0.4252,0.4291,0.4289,0.4186,0.4184,0.4182,0.4153,0,0,0,0,0,0,0.4393,0.4386,0.437,0.4359,0.4353,0.4308,0.4335,0.4335,0.4323,0.4326,0.4312,0.4311,0.4312,0.4277,0.4271,0.4249,0.4287,0.4188,0.4185,0.4182,0.4155,0.415,0.4145,0,0,0,0,0,0.4395,0.4362,0.4369,0.4363,0.4333,0.4307,0.4303,0.4306,0.4322,0.4305,0.4301,0.4311,0.4256,0.4274,0.4267,0.4244,0.4189,0.4186,0.4183,0.4158,0.4151,0.4145,0,0,0,0,0,0,0.4369,0.4361,0.4368,0.4331,0.432,0.431,0.429,0.4299,0.4282,0.4285,0.4289,0.4285,0.4251,0.4245,0.4264,0.4204,0.4225,0.422,0.4208,0.4202,0.4197,0.4198,0.4285,0,0,0,0,0,0.4359,0.4339,0.4333,0.43,0.4295,0.4294,0.4282,0.4286,0.4274,0.4269,0.4262,0.4249,0.4229,0.4215,0.4196,0.4156,0.4152,0.4137,0.4132,0.4127,0.4122,0.41,0.4093,0.417,0.417,0.4171,0,0,0.4337,0.4331,0.4318,0.4295,0.4287,0.4265,0.4289,0.4265,0.4249,0.4265,0.4233,0.4228,0.4214,0.4177,0.416,0.4171,0.4101,0.4123,0.412,0.4117,0.4096,0.4089,0.4082,0.4168,0.4169,0.4169,0,0,0.4287,0.4281,0.4253,0.4244,0.4232,0.4232,0.4226,0.4215,0.4213,0.4182,0.4193,0.4174,0.4139,0.4129,0.4119,0.4068,0.4076,0.4062,0.4033,0.4011,0.4005,0.4,0.398,0.3973,0.4057,0.4057,0.4057,0,0.4261,0.423,0.4237,0.4213,0.4202,0.4217,0.4189,0.418,0.4162,0.4154,0.4167,0.4124,0.4116,0.4077,0.4064,0.4056,0.4048,0.4062,0.4006,0.4,0.3995,0.3977,0.3969,0.4055,0.4056,0.4056,0.4056,0,0.4199,0.4177,0.4156,0.414,0.4127,0.4101,0.4103,0.409,0.4095,0.4094,0.4062,0.4053,0.4033,0.4024,0.4029,0.3986,0.3992,0.4005,0.4027,0.3986,0.3968,0.3961,0.4053,0.4053,0.4054,0.4054,0,0,0.4128,0.4117,0.4109,0.4102,0.4091,0.4074,0.4049,0.403,0.4018,0.4006,0.3984,0.3956,0.3968,0.3957,0.3961,0.3942,0.3901,0.3957,0.3957,0.3946,0.3852,0.3841,0.3832,0.3908,0.3906,0.3905,0.3853,0,0.4076,0.4032,0.4039,0.3996,0.3976,0.3992,0.397,0.396,0.3959,0.3941,0.3939,0.3919,0.3937,0.3931,0.3913,0.3909,0.3882,0.3914,0.3886,0.3885,0.3886,0.3823,0.3811,0.3762,0.3846,0.3845,0.3844,0,0.4008,0.3995,0.3951,0.3944,0.3936,0.3916,0.39,0.3883,0.3873,0.3873,0.3862,0.387,0.3844,0.3868,0.3832,0.3854,0.3844,0.384,0.3839,0.3834,0.386,0.3815,0.3746,0.3738,0.3833,0.3834,0.3835,0,0.3959,0.3931,0.3901,0.3894,0.3886,0.3871,0.3867,0.3858,0.3847,0.3833,0.3826,0.3809,0.3799,0.3785,0.3788,0.3806,0.3751,0.3776,0.375,0.3749,0.3735,0.3735,0.3661,0.3732,0.3732,0.3732,0.3732,0,0.3899,0.3871,0.3879,0.386,0.3829,0.3837,0.3806,0.3804,0.3797,0.3777,0.379,0.3772,0.3778,0.3759,0.3762,0.3731,0.3727,0.3726,0.3726,0.3723,0.3723,0.3714,0.3717,0.373,0.3731,0.3731,0.3731,0,0.3838,0.3842,0.381,0.3805,0.3804,0.3781,0.3777,0.3759,0.376,0.3735,0.373,0.373,0.371,0.3712,0.3689,0.3691,0.3652,0.3658,0.3656,0.3656,0.3629,0.3631,0.3545,0.3534,0.3614,0.3613,0.3612,0,0.3798,0.3777,0.3771,0.3759,0.3754,0.3736,0.3725,0.3733,0.3721,0.3709,0.3692,0.3673,0.3658,0.3624,0.3622,0.3604,0.3608,0.358,0.3606,0.3603,0.3606,0.3606,0.3604,0.3574,0.3573,0.3572,0.3571,0,0.3726,0.373,0.3714,0.3699,0.3686,0.3675,0.3665,0.3655,0.3662,0.3647,0.3627,0.3616,0.3593,0.3573,0.3557,0.3552,0.3562,0.3564,0.3557,0.3552,0.3551,0.355,0.3639,0.3565,0.3566,0.3566,0.3566,0.3567,0.3673,0.3655,0.3648,0.363,0.3624,0.3615,0.3598,0.3598,0.3581,0.3564,0.357,0.3547,0.3538,0.3518,0.3511,0.3493,0.3503,0.3493,0.349,0.3487,0.3483,0.3556,0.349,0.349,0.349,0.3491,0.3491,0,0.36,0.3597,0.3581,0.3567,0.3554,0.3567,0.3557,0.3544,0.3524,0.3516,0.3501,0.3478,0.346,0.3458,0.344,0.3426,0.343,0.3421,0.3421,0.3419,0.3475,0.3483,0.3418,0.3418,0.3418,0.3418,0.3418,0.3418,0.3561,0.3531,0.3534,0.3502,0.3499,0.3477,0.347,0.3462,0.3455,0.3429,0.3415,0.3414,0.3408,0.3391,0.3375,0.3375,0.3367,0.3355,0.3356,0.3408,0.3415,0.3422,0.3429,0.3354,0.3354,0.3301,0.3301,0.3301]},{"header":{"parameterUnit":"m.s-1","parameterCategory":1,"la1":30.2991,"la2":30.254,"lo1":-89.0895,"lo2":-89.0444,"dy":0.0017,"dx":0.0017,"nx":28,"ny":28,"refTime":"2023-05-01T21:00:00:Z","depth":0,"parameterNumber":3,"parameterNumberName":"V-component_of_WINDS"},"data":[0,0,0,0,0,0,0,0,0,0,0,0,0,0,0,0,0,0,0,0,0,0,0,0,0,0,0,0,0,0,0,0,0,0,0,0,0,0,0,0,0,0,0,0,0,0,0,0,0,0,0,0,0,0,0,0,0,0,-2.3069,-2.307,0,-2.3134,-2.3135,-2.3136,-2.3109,-2.3107,-2.3106,-2.3104,-2.3168,-2.3172,-2.3175,0,0,0,0,0,0,0,0,0,0,0,0,0,-2.2919,-2.2922,-2.3069,-2.307,-2.3071,-2.3134,-2.3135,-2.3136,-2.3109,-2.3107,-2.3105,-2.3104,-2.3167,-2.3171,-2.3175,0,0,0,0,0,0,0,0,0,0,0,0,0,-2.2984,-2.2923,-2.3069,-2.3065,-2.3065,-2.3134,-2.3135,-2.3136,-2.3109,-2.3107,-2.3105,-2.3103,-2.3166,-2.3171,-2.3175,-2.3251,0,0,-2.319,-2.3192,0,0,0,0,0,0,0,0,-2.298,-2.2989,-2.3065,-2.3065,-2.3066,-2.3111,-2.3106,-2.3175,-2.311,-2.3093,-2.3104,-2.3102,-2.3151,-2.3157,-2.3174,-2.3254,-2.3257,-2.319,-2.3193,-2.3195,-2.3197,0,0,0,0,0,0,0,-2.2976,-2.2987,-2.3095,-2.3066,-2.3067,-2.3059,-2.3066,-2.3118,-2.3134,-2.3094,-2.3092,-2.31,-2.3151,-2.317,-2.3175,-2.3258,-2.319,-2.3194,-2.3197,-2.3199,-2.3402,-2.3405,0,0,0,0,0,0,-2.2972,-2.2983,-2.3093,-2.3097,-2.3017,-2.3064,-2.3071,-2.3099,-2.3133,-2.3136,-2.3102,-2.3099,-2.3163,-2.317,-2.3178,-2.3268,-2.3195,-2.32,-2.3202,-2.34,-2.3403,-2.3406,0,0,0,0,0,0,-2.2968,-2.2982,-2.309,-2.3039,-2.3053,-2.3069,-2.31,-2.3101,-2.312,-2.314,-2.3142,-2.3119,-2.3161,-2.3171,-2.3233,-2.327,-2.3202,-2.3206,-2.3397,-2.3401,-2.3404,-2.345,0,0,0,0,0,0,-2.2964,-2.2981,-2.301,-2.304,-2.3055,-2.3145,-2.3102,-2.3104,-2.3129,-2.3125,-2.3156,-2.3159,-2.316,-2.3226,-2.3238,-2.3275,-2.321,-2.3394,-2.3399,-2.3403,-2.3446,-2.3455,-2.3464,0,0,0,0,0,-2.2959,-2.302,-2.3012,-2.3025,-2.3093,-2.3148,-2.3156,-2.3157,-2.3132,-2.3161,-2.3174,-2.3158,-2.3264,-2.3233,-2.3246,-2.3285,-2.3391,-2.3397,-2.3403,-2.3441,-2.3453,-2.3463,0,0,0,0,0,0,-2.2993,-2.3024,-2.3015,-2.3088,-2.3115,-2.3143,-2.318,-2.317,-2.3204,-2.3199,-2.3198,-2.3206,-2.327,-2.3284,-2.3248,-2.336,-2.3324,-2.3332,-2.3349,-2.336,-2.3369,-2.3364,-2.3214,0,0,0,0,0,-2.3009,-2.3052,-2.3076,-2.3138,-2.3152,-2.3164,-2.3188,-2.3186,-2.3214,-2.3226,-2.3243,-2.327,-2.3309,-2.3335,-2.3373,-2.3447,-2.3453,-2.3481,-2.349,-2.3497,-2.3504,-2.3545,-2.3557,-2.3425,-2.3425,-2.3425,0,0,-2.3042,-2.3065,-2.3091,-2.3145,-2.3166,-2.321,-2.3174,-2.3221,-2.3253,-2.3233,-2.3293,-2.3306,-2.3336,-2.3405,-2.3436,-2.3418,-2.3542,-2.3504,-2.351,-2.3514,-2.3552,-2.3564,-2.3575,-2.3429,-2.3428,-2.3427,0,0,-2.3126,-2.3147,-2.3201,-2.3223,-2.3256,-2.3263,-2.3276,-2.3305,-2.3314,-2.3374,-2.3359,-2.3397,-2.3465,-2.3487,-2.3507,-2.3599,-2.3585,-2.3611,-2.3658,-2.3697,-2.3708,-2.3717,-2.3749,-2.3761,-2.3618,-2.3618,-2.3619,0,-2.3163,-2.3229,-2.3229,-2.3279,-2.3302,-2.3286,-2.334,-2.3361,-2.3404,-2.3421,-2.3401,-2.3486,-2.3505,-2.3579,-2.3601,-2.3618,-2.3632,-2.3608,-2.3706,-2.3715,-2.3724,-2.3755,-2.3767,-2.3621,-2.3621,-2.3621,-2.362,0,-2.3273,-2.3319,-2.3358,-2.3401,-2.3429,-2.348,-2.3488,-2.3516,-2.3512,-2.3522,-2.3583,-2.3606,-2.3647,-2.3664,-2.3661,-2.3738,-2.3726,-2.3706,-2.367,-2.374,-2.3769,-2.3781,-2.3626,-2.3624,-2.3624,-2.3623,0,0,-2.3379,-2.3422,-2.3437,-2.3456,-2.3491,-2.3526,-2.3576,-2.3618,-2.3642,-2.3672,-2.3714,-2.3772,-2.3754,-2.3777,-2.3775,-2.381,-2.3881,-2.3786,-2.3786,-2.3803,-2.3966,-2.3981,-2.3995,-2.3872,-2.3874,-2.3876,-2.3964,0,-2.3465,-2.3555,-2.3557,-2.3638,-2.368,-2.3665,-2.3709,-2.3735,-2.3745,-2.3781,-2.3791,-2.3833,-2.3806,-2.382,-2.3853,-2.3865,-2.3914,-2.3859,-2.391,-2.3912,-2.3903,-2.401,-2.4026,-2.4108,-2.3975,-2.3977,-2.3979,0,-2.3578,-2.3612,-2.3698,-2.3727,-2.3745,-2.3784,-2.3823,-2.3858,-2.3886,-2.3891,-2.3917,-2.391,-2.396,-2.3922,-2.3991,-2.3954,-2.3975,-2.3984,-2.3987,-2.3992,-2.395,-2.4018,-2.4134,-2.4147,-2.3997,-2.3995,-2.3994,0,-2.3647,-2.3715,-2.3775,-2.3792,-2.3827,-2.3855,-2.3871,-2.3897,-2.3922,-2.3955,-2.3971,-2.4009,-2.403,-2.406,-2.4063,-2.4035,-2.4133,-2.4095,-2.4138,-2.4138,-2.4159,-2.4158,-2.428,-2.4172,-2.4172,-2.4172,-2.4172,0,-2.3743,-2.3796,-2.3807,-2.3844,-2.3903,-2.3904,-2.3962,-2.3975,-2.3999,-2.4038,-2.4027,-2.4063,-2.4065,-2.4103,-2.4105,-2.4162,-2.4172,-2.4176,-2.4177,-2.4178,-2.4177,-2.4191,-2.4186,-2.4175,-2.4174,-2.4174,-2.4173,0,-2.3831,-2.384,-2.3905,-2.3933,-2.3941,-2.3983,-2.4007,-2.4042,-2.405,-2.41,-2.4111,-2.4125,-2.4168,-2.4174,-2.4224,-2.4226,-2.4295,-2.4289,-2.4285,-2.4285,-2.4327,-2.4323,-2.4463,-2.4482,-2.4362,-2.4363,-2.4364,0,-2.3892,-2.3932,-2.3965,-2.3991,-2.4008,-2.4049,-2.4075,-2.4077,-2.4104,-2.414,-2.417,-2.4213,-2.4246,-2.4316,-2.433,-2.4368,-2.4363,-2.441,-2.4369,-2.4368,-2.4364,-2.4362,-2.4365,-2.4417,-2.4419,-2.442,-2.4421,0,-2.3998,-2.4001,-2.4039,-2.4078,-2.4109,-2.414,-2.4169,-2.4191,-2.4197,-2.4227,-2.4272,-2.4298,-2.435,-2.4392,-2.443,-2.4445,-2.4434,-2.4433,-2.4445,-2.4447,-2.4444,-2.4446,-2.4307,-2.443,-2.4429,-2.4429,-2.4428,-2.4428,-2.4075,-2.411,-2.4139,-2.4181,-2.4203,-2.4231,-2.4265,-2.4278,-2.4316,-2.4359,-2.4358,-2.4407,-2.4433,-2.4484,-2.4501,-2.4539,-2.4524,-2.4541,-2.4545,-2.455,-2.4554,-2.4437,-2.4546,-2.4545,-2.4545,-2.4545,-2.4545,0,-2.4181,-2.4199,-2.4238,-2.4279,-2.4312,-2.43,-2.4331,-2.436,-2.4403,-2.443,-2.4463,-2.4514,-2.4555,-2.4572,-2.4611,-2.4638,-2.4634,-2.4649,-2.4647,-2.465,-2.4565,-2.4551,-2.4651,-2.4651,-2.4651,-2.4651,-2.4651,-2.4651,-2.424,-2.43,-2.4306,-2.4376,-2.4393,-2.4441,-2.446,-2.4486,-2.4507,-2.4564,-2.4598,-2.4609,-2.4632,-2.4673,-2.471,-2.4713,-2.4728,-2.4745,-2.4747,-2.4667,-2.4656,-2.4646,-2.4633,-2.4749,-2.4749,-2.4829,-2.483,-2.483]}]]